Theta_e
292 292 292 292 292 291 291 291 291 289 289 289 289 288 288 287 287 287 287 287 287 288
290 290 290 290 290 289 289 289 288 288 288 288 288 288 287 286 286 286 286 286 286 286
289 289 288 288 288 287 287 287 287 286 287 287 287 287 286 285 286 285 285 285 285 285
289 288 288 286 286 286 287 287 286 286 286 285 285 285 284 284 284 284 284 284 284 284
286 288 286 286 285 286 286 286 285 285 285 285 285 284 283 283 283 282 281 282 282 282
283 285 286 285 286 286 286 286 286 285 284 284 284 284 284 283 283 282 282 281 281 281
280 282 284 287 286 286 286 285 285 284 284 284 285 285 284 284 282 281 281 282 281 281
280 280 281 283 284 285 285 284 284 284 284 284 284 284 282 282 281 281 280 281 282 282
279 278 279 281 283 284 284 283 283 283 282 282 283 285 286 284 282 282 281 280 281 282
279 277 277 278 281 282 282 282 282 282 282 282 282 285 285 285 282 281 281 280 281 281
279 278 278 277 279 280 281 281 281 282 282 281 281 285 285 285 281 280 280 280 280 280
277 276 278 279 280 281 280 280 280 281 280 279 279 284 284 283 280 280 279 280 280 280
275 275 275 278 279 281 281 280 280 280 280 279 278 282 283 283 278 276 278 276 279 281
275 275 276 278 280 281 279 279 276 276 276 274 275 278 282 283 280 278 277 277 278 279
Wind_Speed
8 5 6 7 6 5 4 4 4 4 5 5 5 4 4 3 4 5 4 4 4 3
8 9 9 9 7 5 6 4 5 5 6 6 6 5 5 3 5 4 3 4 4 3
12 11 9 7 8 7 6 6 6 6 6 6 6 6 6 4 4 5 4 3 5 4
17 13 11 8 8 7 7 7 7 7 6 6 6 6 5 5 6 5 5 5 5 6
19 17 11 10 8 7 8 7 7 6 6 6 6 6 6 6 5 5 5 6 5 6
18 19 16 12 10 8 9 7 6 6 6 5 6 6 5 6 6 6 6 6 6 6
17 16 18 16 8 7 7 7 6 6 5 5 4 5 5 5 6 6 6 6 6 6
17 16 16 15 9 7 11 7 6 4 9 8 6 5 6 6 5 5 6 6 6 7
15 13 14 14 11 12 9 10 10 8 9 6 6 11 13 9 6 7 6 7 7 7
16 14 12 11 10 11 11 9 6 6 7 12 9 14 16 15 6 6 7 7 8 7
17 16 14 10 11 13 11 10 10 11 11 11 8 16 18 16 6 7 8 9 8 8
16 18 18 17 16 14 11 10 10 9 9 9 9 15 17 13 5 7 8 7 8 8
16 16 18 18 17 13 10 10 9 9 8 9 9 13 14 12 2 4 6 4 7 14
16 16 16 17 14 12 7 8 4 5 4 6 5 6 13 15 7 6 5 5 5 5
Wind_Direction
285 274 269 272 275 266 250 239 224 192 218 237 230 232 238 229 244 247 249 258 261 260
276 269 264 260 261 250 256 244 225 213 221 235 231 230 229 235 246 245 244 254 254 248
285 275 267 259 258 251 246 237 232 222 222 225 226 220 220 232 242 235 245 246 250 253
305 277 267 259 253 250 252 239 227 218 223 224 224 226 221 228 237 240 244 250 251 258
311 298 273 265 255 245 253 246 238 233 231 229 232 228 225 230 243 238 241 250 254 257
315 312 296 276 268 263 258 241 242 228 230 239 244 243 236 229 235 238 242 245 249 250
312 308 304 294 279 289 271 250 241 238 230 235 256 254 247 244 247 248 246 251 249 249
307 306 301 293 284 268 277 267 243 228 264 230 222 235 231 230 230 242 250 246 244 241
301 302 300 298 282 268 257 261 264 248 234 233 236 239 247 247 222 232 237 251 255 248
310 299 295 294 289 273 259 259 237 254 256 250 230 239 252 251 237 227 238 243 253 259
325 317 306 290 284 278 261 237 234 247 249 241 236 244 253 254 238 235 234 238 245 250
322 316 314 307 299 287 267 252 243 244 241 234 245 245 251 256 234 237 237 238 240 243
318 315 311 306 299 285 263 255 252 246 229 225 238 241 258 268 210 250 254 238 238 241
315 311 309 307 308 296 275 259 235 235 240 238 225 257 273 271 260 249 254 251 251 234